Waukesha, WI

9:04 AM CDT on August 19, 2017 (GMT -0500)
Waukesha County

Weather History for KUES - March, 2012

Change the Weather History Date:

Saturday, March 24, 2012

  Actual Average Record
Temperature  
Mean Temperature 54 °F -  
Max Temperature 57 °F 42 °F 68 °F (1963)
Min Temperature 50 °F 26 °F -2 °F (1974)
Degree Days  
Heating Degree Days 12    
Growing Degree Days 4 (Base 50)    
Moisture  
Dew Point 51 °F    
Average Humidity 97    
Maximum Humidity 100    
Minimum Humidity 88    
Precipitation  
Precipitation 0.00 in - - ()
Sea Level Pressure  
Sea Level Pressure 29.88 in    
Wind  
Wind Speed 5 mph (North)    
Max Wind Speed 9 mph    
Max Gust Speed -    
Visibility 4 miles    
Events Fog    
Averages and records for this station are not official NWS values.
T = Trace of Precipitation, MM = Missing Value Source: NWS Daily Summary

Daily Weather History Graph

Daily Weather History Graph

Search for Another Location

Airport or City:

Trip Planner

Search our weather history database for the weather conditions in past years. The results will help you decide how hot, cold, wet, or windy it might be!

Date:

Astronomy

Mar. 24, 2012 Rise Set
Actual Time 6:48 AM CDT 7:10 PM CDT
Civil Twilight 6:19 AM CDT 7:39 PM CDT
Nautical Twilight 5:46 AM CDT 8:12 PM CDT
Astronomical Twilight 5:12 AM CDT 8:46 PM CDT
Moon 7:22 AM CDT (3/24) 9:34 PM CDT (3/24)
Length of Visible Light 13h 19m
Length of Day
12h 22m
Waxing Crescent, 4% of the Moon is Illuminated
Mar 24
Waxing Crescent
Mar 30
First Quarter
Apr 6
Full
Apr 13
Last Quarter
Apr 21
New

Hourly Weather History & Observations

Time (CDT) Temp. Dew Point Humidity Pressure Visibility Wind Dir Wind Speed Gust Speed Precip Events Conditions
12:15 AM 51.8 °F 51.8 °F 100% 29.83 in 0.8 mi NNE 4.6 mph - N/A   Overcast
12:35 AM 51.8 °F 51.8 °F 100% 29.83 in 0.5 mi NNE 3.5 mph - N/A Fog Fog
12:55 AM 51.8 °F 51.8 °F 100% 29.83 in 0.2 mi NNE 4.6 mph - N/A Fog Fog
1:15 AM 51.8 °F 51.8 °F 100% 29.83 in 0.2 mi NNE 4.6 mph - N/A Fog Fog
1:35 AM 51.8 °F 51.8 °F 100% 29.84 in 0.5 mi ENE 5.8 mph - N/A Fog Fog
1:55 AM 51.8 °F 51.8 °F 100% 29.84 in 0.8 mi NE 6.9 mph - N/A   Overcast
2:15 AM 51.8 °F 51.8 °F 100% 29.83 in 0.8 mi NNE 5.8 mph - N/A   Overcast
2:55 AM 51.8 °F 51.8 °F 100% 29.83 in 1.5 mi North 4.6 mph - N/A   Overcast
3:15 AM 51.8 °F 51.8 °F 100% 29.83 in 0.8 mi NNE 4.6 mph - N/A   Overcast
3:35 AM 51.8 °F 51.8 °F 100% 29.83 in 1.8 mi North 4.6 mph - N/A   Overcast
3:55 AM 51.8 °F 51.8 °F 100% 29.83 in 2.5 mi North 4.6 mph - N/A   Overcast
4:15 AM 51.8 °F 51.8 °F 100% 29.83 in 2.5 mi NE 5.8 mph - N/A   Overcast
4:35 AM 51.8 °F 51.8 °F 100% 29.83 in 1.8 mi NNE 3.5 mph - N/A   Overcast
4:55 AM 51.8 °F 51.8 °F 100% 29.83 in 1.0 mi NE 4.6 mph - N/A   Overcast
5:15 AM 51.8 °F 51.8 °F 100% 29.83 in 0.5 mi North 3.5 mph - N/A   Light Drizzle
5:35 AM 51.8 °F 51.8 °F 100% 29.83 in 0.5 mi NE 3.5 mph - N/A Fog Fog
5:45 AM 51.8 °F 51.8 °F 100% 29.83 in 0.5 mi NNE 4.6 mph - N/A Fog Light Drizzle
6:45 AM 51.8 °F 50.0 °F 94% 29.84 in 0.2 mi ENE 8.1 mph - N/A Fog Fog
7:45 AM 51.8 °F 50.0 °F 94% 29.86 in 0.2 mi NNE 6.9 mph - N/A Fog Fog
8:45 AM 51.8 °F 51.8 °F 100% 29.87 in 0.5 mi North 5.8 mph - N/A Fog Fog
9:05 AM 51.8 °F 51.8 °F 100% 29.87 in 2.0 mi North 6.9 mph - N/A   Overcast
9:45 AM 53.6 °F 53.6 °F 100% 29.87 in 5.0 mi NE 5.8 mph - N/A   Overcast
10:45 AM 53.6 °F 53.6 °F 100% 29.89 in 7.0 mi ENE 6.9 mph - N/A   Overcast
11:45 AM 53.6 °F 51.8 °F 94% 29.89 in 10.0 mi East 5.8 mph - N/A   Overcast
12:45 PM 55.4 °F 53.6 °F 94% 29.88 in 10.0 mi Calm Calm - N/A   Overcast
1:45 PM 57.2 °F 53.6 °F 88% 29.89 in 10.0 mi Calm Calm - N/A   Overcast
2:45 PM 55.4 °F 53.6 °F 94% 29.89 in 4.0 mi NW 9.2 mph - N/A   Overcast
3:10 PM 57.2 °F 53.6 °F 88% 29.89 in 5.0 mi NW 9.2 mph - N/A   Overcast
3:45 PM 55.4 °F 53.6 °F 94% 29.89 in 5.0 mi NNW 5.8 mph - N/A   Overcast
4:15 PM 55.4 °F 51.8 °F 88% 29.90 in 5.0 mi WNW 8.1 mph - N/A   Overcast
4:45 PM 55.4 °F 51.8 °F 88% 29.91 in 7.0 mi NNW 5.8 mph - N/A   Overcast
5:45 PM 53.6 °F 50.0 °F 88% 29.92 in 7.0 mi NW 6.9 mph - N/A   Overcast
6:45 PM 51.8 °F 50.0 °F 94% 29.93 in 5.0 mi NNW 6.9 mph - N/A   Overcast
7:45 PM 51.8 °F 50.0 °F 94% 29.93 in 7.0 mi Calm Calm - N/A   Overcast
8:45 PM 51.8 °F 50.0 °F 94% 29.94 in 3.0 mi Calm Calm - N/A   Overcast
9:15 PM 50.0 °F 50.0 °F 100% 29.95 in 4.0 mi Calm Calm - N/A   Overcast
9:35 PM 50.0 °F 50.0 °F 100% 29.95 in 4.0 mi Calm Calm - N/A   Overcast
9:55 PM 50.0 °F 50.0 °F 100% 29.96 in 5.0 mi NNW 3.5 mph - N/A   Overcast
10:15 PM 50.0 °F 50.0 °F 100% 29.96 in 5.0 mi NW 5.8 mph - N/A   Overcast
10:35 PM 50.0 °F 50.0 °F 100% 29.96 in 5.0 mi NW 5.8 mph - N/A   Overcast
10:55 PM 50.0 °F 50.0 °F 100% 29.97 in 5.0 mi NW 6.9 mph - N/A   Overcast
11:15 PM 50.0 °F 50.0 °F 100% 29.96 in 5.0 mi Calm Calm - N/A   Overcast
11:35 PM 50.0 °F 48.2 °F 94% 29.96 in 5.0 mi West 3.5 mph - N/A   Overcast
11:55 PM 50.0 °F 50.0 °F 100% 29.97 in 7.0 mi WNW 3.5 mph - N/A   Overcast